Flag for Algeria Weather past 2 weeks in Constantine, Algeria

Now
91 °F

Passing clouds.


Feels Like: 88 °F
Forecast: 62 / 94 °F
Wind: 8 mph from Southwest

Location: Constantine Airport

Current Time: Jul 2, 2015 at 11:03:49 AM

Latest Report: Jul 2, 2015 at 10:30 AM


Visibility: N/A

Pressure: 30.15 "Hg

Humidity: 24%

Dew point: 50 °F

Location of ConstantineLocation

Historic Weather in Constantine — Graph

°F

Constantine temperature yesterday

Maximum temperature yesterday: 99 °F (at 3:00 PM)
Minimum temperature yesterday: 63 °F (at 5:00 AM)
Average temperature yesterday: 82 °F

Past Weeks' High & Low Weather Summary

 TemperatureHumidityPressure
High99 °F (Jun 23, 2:00 PM)88% (Jun 18, 2:30 AM)30.24 "Hg (Jun 18, 2:30 AM)
Low52 °F (Jun 18, 4:00 AM)11% (Jun 30, 3:30 PM)29.95 "Hg (Jun 23, 2:00 PM)
Average73 °F47%30.14 "Hg
* Reported Jun 17 9:00 AM — Jul 2 9:30 AM, Constantine, Weather by CustomWeather, © 2015

Note: Actual official high and low records may vary slightly from our data, if they occured in-between our weather recording intervals... More about our weather records

Advertising

Constantine weather history for previous 24 hours

 ConditionsComfort  
Time TempWeatherWind HumidityBarometerVisibility
9:30 AM
Thu, Jul 2
90 °FPassing clouds.9 mph26%30.15 "HgN/A
9:00 AM88 °FPassing clouds.3 mph27%30.18 "HgN/A
8:30 AM82 °FSunny.3 mph37%30.15 "Hg10 mi
8:00 AM79 °FSunny.3 mph39%30.15 "Hg10 mi
7:30 AM77 °FSunny.2 mph42%30.15 "Hg10 mi
7:00 AM75 °FSunny.2 mph44%30.15 "Hg10 mi
6:30 AM72 °FSunny.No wind50%30.15 "Hg10 mi
6:00 AM68 °FSunny.No wind53%30.15 "Hg10 mi
5:30 AM68 °FSunny.No wind53%30.15 "Hg10 mi
5:00 AM68 °FClear.No wind53%30.15 "Hg10 mi
4:30 AM68 °FClear.2 mph53%30.12 "Hg10 mi
4:00 AM68 °FClear.2 mph49%30.12 "Hg10 mi
3:30 AM70 °FClear.No wind50%30.15 "Hg10 mi
3:00 AM70 °FClear.2 mph50%30.15 "Hg10 mi
2:30 AM70 °FClear.2 mph50%30.15 "Hg10 mi
2:00 AM72 °FClear.3 mph47%30.15 "Hg10 mi
1:30 AM73 °FClear.2 mph44%30.15 "Hg10 mi
1:00 AM73 °FClear.1 mph47%30.15 "Hg10 mi
12:30 AM75 °FClear.2 mph44%30.15 "Hg10 mi
12:00 AM73 °FClear.2 mph44%30.15 "Hg10 mi
11:30 PM
Wed, Jul 1
73 °FClear.9 mph44%30.15 "Hg10 mi
11:00 PM79 °FClear.2 mph37%30.15 "Hg10 mi
10:30 PM79 °FClear.No wind37%30.15 "Hg10 mi
10:00 PM81 °FClear.1 mph37%30.15 "Hg10 mi
9:30 PM82 °FClear.6 mph35%30.12 "Hg10 mi
9:00 PM81 °FClear.1 mph39%30.12 "Hg10 mi
8:30 PM82 °FClear.10 mph35%30.09 "Hg10 mi
8:00 PM86 °FClear.12 mph33%30.09 "Hg10 mi
7:30 PM91 °FSunny.14 mph28%30.07 "Hg10 mi
7:00 PM91 °FSunny.16 mph28%30.07 "Hg10 mi
6:30 PM93 °FSunny.16 mph24%30.07 "Hg10 mi
6:00 PM95 °FSunny.13 mph22%30.07 "Hg10 mi
5:30 PM97 °FSunny.8 mph20%30.07 "Hg10 mi
5:00 PM97 °FSunny.14 mph22%30.07 "Hg10 mi
4:30 PM99 °FSunny.7 mph15%30.07 "Hg10 mi
4:00 PM99 °FSunny.7 mph13%30.07 "Hg10 mi
3:00 PM99 °FSunny.9 mph12%30.07 "Hg10 mi
2:30 PM97 °FSunny.9 mph17%30.09 "Hg10 mi
2:00 PM97 °FSunny.9 mph17%30.09 "Hg10 mi
1:30 PM97 °FSunny.7 mph19%30.09 "Hg10 mi
1:00 PM95 °FSunny.7 mph20%30.09 "Hg10 mi
12:30 PM93 °FSunny.9 mph23%30.12 "Hg10 mi
12:00 PM93 °FSunny.6 mph23%30.12 "Hg10 mi
11:30 AM93 °FSunny.6 mph23%30.12 "Hg10 mi
11:00 AM90 °FSunny.8 mph26%30.12 "Hg10 mi
Weather by CustomWeather, © 2015

See weather overviewHow to use our weather pages